DW3200 Weather Reports


time (UTC)temp
F
wind
direction
speed
knots
gust
knots
rain 1hr
in
rain 24hr
in
rain mn
in
humidity
%
barometer
mb
20260503013029 74 270 0.9 0.0 0.00 0.00 0.00 29 1011.3
20260503011530 74 270 0.9 0.0 0.00 0.00 0.00 30 1011.5
20260503010027 74 269 2.6 0.0 0.00 0.00 0.00 29 1011.5
20260503004527 73 269 0.9 0.0 0.00 0.00 0.00 30 1011.7
20260503003008 74 269 1.7 0.0 0.00 0.00 0.00 29 1011.8
20260503001509 76 267 0.9 0.0 0.00 0.00 0.00 25 1011.8
20260503000052 75 267 0.9 0.0 0.00 0.00 0.00 27 1011.9
20260502234601 75 265 3.5 0.0 0.00 0.00 0.00 27 1012.0
20260502233029 76 168 0.0 0.0 0.00 0.00 0.00 22 1012.2
20260502231532 76 170 0.9 0.0 0.00 0.00 0.00 22 1012.4
20260502230009 76 169 1.7 0.0 0.00 0.00 0.00 20 1012.5
20260502224507 75 169 0.9 0.0 0.00 0.00 0.00 19 1012.7
20260502223059 76 169 0.9 0.0 0.00 0.00 0.00 18 1012.8
20260502221547 76 172 0.9 0.0 0.00 0.00 0.00 19 1013.1
20260502220027 76 191 0.9 0.0 0.00 0.00 0.00 22 1013.2
20260502214524 76 191 1.7 0.0 0.00 0.00 0.00 20 1013.4
20260502213004 74 197 2.6 0.0 0.00 0.00 0.00 22 1013.5
20260502211502 74 293 0.9 0.0 0.00 0.00 0.00 26 1013.7
20260502210042 74 296 2.6 0.0 0.00 0.00 0.00 28 1013.7
20260502204542 74 290 3.5 0.0 0.00 0.00 0.00 29 1013.9
20260502203028 73 284 1.7 0.0 0.00 0.00 0.00 30 1014.0
20260502201520 72 265 1.7 0.0 0.00 0.00 0.00 30 1014.2
20260502200002 73 253 0.9 0.0 0.00 0.00 0.00 30 1014.3
20260502194558 71 238 1.7 0.0 0.00 0.00 0.00 30 1014.4
20260502193047 71 290 3.5 0.0 0.00 0.00 0.00 34 1014.6
20260502191546 70 291 2.6 0.0 0.00 0.00 0.00 36 1014.7
20260502190041 71 284 3.5 0.0 0.00 0.00 0.00 35 1014.8
20260502184539 70 284 0.9 0.0 0.00 0.00 0.00 39 1014.9
20260502183038 69 283 0.0 0.0 0.00 0.00 0.00 37 1015.1
20260502181533 69 283 0.0 0.0 0.00 0.00 0.00 39 1015.3
20260502163038 62 284 0.9 0.0 0.00 0.00 0.00 47 1015.8
20260502161529 60 284 0.0 0.0 0.00 0.00 0.00 51 1015.8
20260502151540 49 284 0.0 0.0 0.00 0.00 0.00 82 1016.0
20260502123110 37 284 0.0 0.0 0.00 0.00 0.00 88 1016.1
20260502121554 37 284 0.0 0.0 0.00 0.00 0.00 88 1016.1
20260502114527 38 284 0.0 0.0 0.00 0.00 0.00 87 1016.0
20260502113008 39 284 0.0 0.0 0.00 0.00 0.00 92 1016.0
20260502111506 39 284 0.0 0.0 0.00 0.00 0.00 86 1016.0
20260502110048 39 284 0.0 0.0 0.00 0.00 0.00 86 1015.9
20260502104548 40 284 0.0 0.0 0.00 0.00 0.00 86 1016.0
20260502103029 40 284 0.0 0.0 0.00 0.00 0.00 85 1016.0
20260502101530 40 284 0.0 0.0 0.00 0.00 0.00 85 1016.0
20260502071520 44 284 0.0 0.0 0.00 0.00 0.00 80 1016.0
20260502070020 45 284 0.0 0.0 0.00 0.00 0.00 80 1016.0
20260502064558 45 284 0.0 0.0 0.00 0.00 0.00 79 1015.9
20260502063057 46 284 0.0 0.0 0.00 0.00 0.00 78 1015.8
20260502061538 46 284 0.0 0.0 0.00 0.00 0.00 77 1015.8
20260502060035 47 284 0.0 0.0 0.00 0.00 0.00 76 1015.7
20260502054515 48 284 0.0 0.0 0.00 0.00 0.00 75 1015.7
20260502053012 49 284 0.0 0.0 0.00 0.00 0.00 74 1015.7
20260502051601 49 284 0.0 0.0 0.00 0.00 0.00 73 1015.8
20260502050050 50 284 0.0 0.0 0.00 0.00 0.00 72 1015.7
20260502044531 51 284 0.0 0.0 0.00 0.00 0.00 70 1015.7
20260502043031 52 284 0.0 0.0 0.00 0.00 0.00 69 1015.7
20260502041512 53 284 0.0 0.0 0.00 0.00 0.00 67 1015.5
20260502040009 54 284 0.0 0.0 0.00 0.00 0.00 67 1015.4
20260502034508 56 284 0.0 0.0 0.00 0.00 0.00 64 1015.2
20260502033007 57 284 0.0 0.0 0.00 0.00 0.00 61 1015.1
20260502031507 58 284 0.0 0.0 0.00 0.00 0.00 60 1015.0
20260502030007 60 284 0.0 0.0 0.00 0.00 0.00 56 1014.9
20260502024506 62 284 0.0 0.0 0.00 0.00 0.00 51 1014.8
20260502023007 65 284 0.0 0.0 0.00 0.00 0.00 44 1014.8
20260502021546 67 284 0.0 0.0 0.00 0.00 0.00 42 1014.9
20260502020046 68 284 0.0 0.0 0.00 0.00 0.00 33 1014.9
20260502014530 69 284 0.0 0.0 0.00 0.00 0.00 34 1014.9